Flag for Switzerland Weather past 2 weeks in Aarau, Aargau, Switzerland

Now
69 °F

Mild.


Feels Like: 69 °F
Forecast: 51 / 87 °F
Wind: 5 mph from Northeast

Location: Wynau

Current Time: Aug 2, 2015 at 1:03:15 PM

Latest Report: Aug 2, 2015 at 12:00 PM


Visibility: N/A

Pressure: 30.09 "Hg

Humidity: 68%

Dew point: 58 °F

Location of AarauLocation

Historic Weather in Aarau — Graph

°F

Aarau temperature yesterday

Maximum temperature yesterday: 66 °F (at 4:00 PM)
Minimum temperature yesterday: 57 °F (at 2:00 AM)
Average temperature yesterday: 62 °F

Past Weeks' High & Low Weather Summary

 TemperatureHumidityPressure
High92 °F (Jul 21, 6:00 PM)100% (Aug 2, 6:00 AM)30.18 "Hg (Aug 2, 6:00 AM)
Low47 °F (Jul 31, 6:00 AM)27% (Jul 21, 6:00 PM)29.63 "Hg (Jul 24, 6:00 PM)
Average68 °F69%29.93 "Hg
* Reported Jul 18 10:00 AM — Aug 2 10:00 AM, Aarau, Weather by CustomWeather, © 2015

Note: Actual official high and low records may vary slightly from our data, if they occured in-between our weather recording intervals... More about our weather records

Advertising

Aarau weather history for previous 24 hours

 ConditionsComfort  
Time TempWeatherWind HumidityBarometerVisibility
10:00 AM
Sun, Aug 2
61 °FCool.1 mph90%30.12 "HgN/A
9:00 AM60 °FCool.2 mph92%30.12 "HgN/A
8:00 AM59 °FCool.1 mph94%30.12 "HgN/A
7:00 AM57 °FCool.No wind99%30.11 "HgN/A
6:00 AM56 °FCool.1 mph100%30.11 "HgN/A
5:00 AM57 °FCool.1 mph99%30.09 "HgN/A
4:00 AM58 °FCool.1 mph98%30.08 "HgN/A
3:00 AM59 °FCool.1 mph95%30.08 "HgN/A
2:00 AM60 °FCool.1 mph99%30.07 "HgN/A
1:00 AM61 °FCool.1 mph98%30.07 "HgN/A
12:00 AM61 °FCool.2 mph98%30.07 "HgN/A
10:00 PM
Sat, Aug 1
62 °FCool.3 mph90%30.05 "HgN/A
9:00 PM64 °FMild.2 mph82%30.02 "HgN/A
8:00 PM64 °FMild.1 mph88%30.00 "HgN/A
7:00 PM64 °FMild.1 mph90%29.99 "HgN/A
6:00 PM65 °FMild.1 mph85%29.99 "HgN/A
5:00 PM66 °FMild.1 mph75%29.98 "HgN/A
4:00 PM66 °FMild.1 mph76%29.98 "HgN/A
3:00 PM65 °FMild.2 mph76%29.98 "HgN/A
2:00 PM65 °FMild.2 mph79%29.98 "HgN/A
1:00 PM64 °FMild.2 mph78%29.98 "HgN/A
Weather by CustomWeather, © 2015

See weather overviewHow to use our weather pages